GRZLY22 EDDH-ENBR

Flight info

Callsign GRZLY22
Flight time 1h 20m
Altitude 36000
Route ELSOB3G/33 ELSOB Y348 OMWEG DCT BADOS DCT GIKOG DCT ATTUS P992 LINVI DCT BADAB
Aircraft A400/H-SDE3FGHIRWY/L4T

Departure

Time 2026-05-06 18:14
Airport Hamburg Helmut Schmidt Airport (EDDH)

Arrival

Time 2026-05-06 19:34
Airport Bergen Airport, Flesland (ENBR)
Time Latitude Longitude Altitude Speed Heading
2026-05-06 17:47 53.62645 10.00371 50 ft 0 kts 81°
2026-05-06 18:05 53.62644 10.00353 56 ft 2 kts 82°
2026-05-06 18:05 53.62642 10.00326 49 ft 2 kts 84°
2026-05-06 18:05 53.62641 10.00299 48 ft 2 kts 89°
2026-05-06 18:05 53.62641 10.00271 48 ft 2 kts 102°
2026-05-06 18:06 53.62647 10.00246 48 ft 2 kts 136°
2026-05-06 18:06 53.62657 10.00233 49 ft 1 kts 154°
2026-05-06 18:06 53.62658 10.00232 49 ft 1 kts 154°
2026-05-06 18:06 53.62649 10.00241 48 ft 2 kts 153°
2026-05-06 18:07 53.62629 10.00258 52 ft 4 kts 151°
2026-05-06 18:07 53.62628 10.00259 52 ft 0 kts 151°
2026-05-06 18:11 53.62602 10.00269 53 ft 6 kts 186°
2026-05-06 18:12 53.62570 10.00205 56 ft 0 kts 242°
2026-05-06 18:13 53.62563 10.00181 56 ft 7 kts 243°
2026-05-06 18:13 53.62539 10.00049 57 ft 15 kts 269°
2026-05-06 18:13 53.62599 9.99960 55 ft 29 kts 333°
2026-05-06 18:13 53.63130 9.99532 53 ft 139 kts 332°
2026-05-06 18:14 53.64111 9.98647 749 ft 168 kts 335°
2026-05-06 18:14 53.65225 9.97651 1600 ft 195 kts 338°
2026-05-06 18:14 53.66456 9.96578 2851 ft 197 kts 339°
2026-05-06 18:14 53.67680 9.95556 4024 ft 194 kts 339°
2026-05-06 18:15 53.68874 9.94558 4715 ft 190 kts 338°
2026-05-06 18:15 53.70030 9.93470 4993 ft 190 kts 327°
2026-05-06 18:15 53.70940 9.91821 5178 ft 198 kts 302°
2026-05-06 18:15 53.71320 9.89524 5647 ft 210 kts 272°
2026-05-06 18:16 53.71084 9.87146 6147 ft 204 kts 255°
2026-05-06 18:16 53.70642 9.84857 6656 ft 210 kts 252°
2026-05-06 18:16 53.70140 9.82426 7160 ft 228 kts 252°
2026-05-06 18:16 53.69609 9.79841 7662 ft 237 kts 252°
2026-05-06 18:17 53.69069 9.77163 8187 ft 256 kts 252°
2026-05-06 18:17 53.68473 9.74172 8685 ft 279 kts 253°
2026-05-06 18:17 53.68037 9.70941 9208 ft 285 kts 270°
2026-05-06 18:17 53.68427 9.67704 9746 ft 284 kts 296°
2026-05-06 18:18 53.69628 9.65104 10222 ft 282 kts 323°
2026-05-06 18:18 53.71325 9.63751 10722 ft 269 kts 350°
2026-05-06 18:18 53.73241 9.63579 11228 ft 288 kts
2026-05-06 18:18 53.75345 9.63755 11729 ft 316 kts
2026-05-06 18:19 53.77612 9.63993 12238 ft 335 kts
2026-05-06 18:19 53.79974 9.64244 12761 ft 344 kts
2026-05-06 18:19 53.82383 9.64505 13294 ft 350 kts
2026-05-06 18:19 53.84797 9.64771 13811 ft 355 kts
2026-05-06 18:20 53.87314 9.65069 14309 ft 361 kts
2026-05-06 18:20 53.89837 9.65407 14796 ft 366 kts
2026-05-06 18:20 53.92378 9.65753 15288 ft 368 kts
2026-05-06 18:20 53.94937 9.66119 15795 ft 371 kts
2026-05-06 18:21 53.97481 9.66494 16347 ft 373 kts
2026-05-06 18:21 54.00069 9.66875 16997 ft 375 kts
2026-05-06 18:21 54.02684 9.67277 17669 ft 379 kts
2026-05-06 18:21 54.05318 9.67692 18404 ft 378 kts
2026-05-06 18:22 54.07953 9.68108 19118 ft 383 kts
2026-05-06 18:22 54.10630 9.68534 19734 ft 390 kts
2026-05-06 18:22 54.13350 9.68968 20362 ft 394 kts
2026-05-06 18:22 54.16091 9.69407 21010 ft 398 kts
2026-05-06 18:23 54.18872 9.69858 21647 ft 402 kts
2026-05-06 18:23 54.21667 9.70319 22312 ft 406 kts
2026-05-06 18:23 54.24487 9.70792 22999 ft 409 kts
2026-05-06 18:23 54.27328 9.71275 23657 ft 412 kts
2026-05-06 18:24 54.30194 9.71763 24252 ft 414 kts
2026-05-06 18:24 54.33065 9.72247 24848 ft 415 kts
2026-05-06 18:24 54.35941 9.72726 25472 ft 416 kts
2026-05-06 18:24 54.38827 9.72905 26107 ft 414 kts 355°
2026-05-06 18:25 54.41675 9.72224 26680 ft 415 kts 344°
2026-05-06 18:25 54.44385 9.70481 26925 ft 420 kts 330°
2026-05-06 18:25 54.46773 9.67605 26921 ft 419 kts 315°
2026-05-06 18:25 54.48839 9.64082 26906 ft 416 kts 310°
2026-05-06 18:26 54.50746 9.60357 26910 ft 414 kts 307°
2026-05-06 18:26 54.52576 9.56536 26912 ft 413 kts 306°
2026-05-06 18:26 54.54381 9.52678 26910 ft 413 kts 306°
2026-05-06 18:26 54.56185 9.48828 26909 ft 413 kts 306°
2026-05-06 18:27 54.58002 9.44986 26914 ft 413 kts 306°
2026-05-06 18:27 54.59831 9.41160 26911 ft 414 kts 307°
2026-05-06 18:27 54.61668 9.37346 26918 ft 414 kts 307°
2026-05-06 18:27 54.63489 9.33583 26917 ft 414 kts 307°
2026-05-06 18:28 54.65334 9.29774 26928 ft 414 kts 307°
2026-05-06 18:28 54.67179 9.25960 26926 ft 413 kts 306°
2026-05-06 18:28 54.69025 9.22141 26923 ft 413 kts 306°
2026-05-06 18:28 54.70864 9.18327 26926 ft 413 kts 306°
2026-05-06 18:29 54.72704 9.14504 27048 ft 410 kts 306°
2026-05-06 18:29 54.74523 9.10721 27548 ft 408 kts 306°
2026-05-06 18:29 54.76336 9.06940 28127 ft 408 kts 306°
2026-05-06 18:29 54.78148 9.03156 28749 ft 407 kts 306°
2026-05-06 18:30 54.79951 8.99384 29373 ft 406 kts 305°
2026-05-06 18:30 54.81750 8.95615 30010 ft 405 kts 305°
2026-05-06 18:30 54.83542 8.91855 30563 ft 404 kts 305°
2026-05-06 18:30 54.85324 8.88109 31116 ft 402 kts 305°
2026-05-06 18:31 54.87103 8.84370 31684 ft 401 kts 306°
2026-05-06 18:31 54.89058 8.80890 32256 ft 404 kts 315°
2026-05-06 18:31 54.91322 8.77985 32847 ft 407 kts 325°
2026-05-06 18:31 54.93852 8.75745 33456 ft 408 kts 332°
2026-05-06 18:32 54.96455 8.73787 34084 ft 407 kts 333°
2026-05-06 18:32 54.99078 8.71969 34604 ft 404 kts 334°
2026-05-06 18:32 55.01693 8.70229 35125 ft 402 kts 335°
2026-05-06 18:32 55.04315 8.68503 35641 ft 401 kts 335°
2026-05-06 18:33 55.06935 8.66770 35901 ft 404 kts 334°
2026-05-06 18:33 55.09567 8.65012 35940 ft 405 kts 334°
2026-05-06 18:33 55.14779 8.61486 35935 ft 404 kts 334°
2026-05-06 18:34 55.20010 8.57913 35944 ft 404 kts 334°
2026-05-06 18:34 55.25275 8.54300 35943 ft 403 kts 334°
2026-05-06 18:35 55.29617 8.51315 35944 ft 403 kts 334°
2026-05-06 18:35 55.34838 8.47717 35957 ft 403 kts 334°
2026-05-06 18:36 55.40059 8.44110 35971 ft 403 kts 334°
2026-05-06 18:36 55.45272 8.40497 35950 ft 403 kts 334°
2026-05-06 18:37 55.50495 8.36864 35973 ft 403 kts 333°
2026-05-06 18:37 55.55711 8.33226 35954 ft 403 kts 333°
2026-05-06 18:38 55.60923 8.29564 35952 ft 403 kts 333°
2026-05-06 18:38 55.66097 8.25772 35967 ft 402 kts 332°
2026-05-06 18:39 55.71226 8.21945 35966 ft 402 kts 332°
2026-05-06 18:40 55.78965 8.16161 35966 ft 402 kts 332°
2026-05-06 18:40 55.84129 8.12301 35985 ft 402 kts 332°
2026-05-06 18:41 55.89287 8.08438 35983 ft 402 kts 332°
2026-05-06 18:41 55.94449 8.04563 35985 ft 402 kts 332°
2026-05-06 18:42 55.99610 8.00676 35985 ft 402 kts 332°
2026-05-06 18:42 56.04767 7.96781 36016 ft 402 kts 332°
2026-05-06 18:43 56.09923 7.92876 35995 ft 403 kts 332°
2026-05-06 18:43 56.15116 7.88927 35992 ft 406 kts 332°
2026-05-06 18:44 56.20295 7.84981 35994 ft 407 kts 332°
2026-05-06 18:44 56.25504 7.81002 36000 ft 407 kts 332°
2026-05-06 18:45 56.30714 7.77010 36004 ft 407 kts 331°
2026-05-06 18:45 56.35924 7.73004 36012 ft 407 kts 331°
2026-05-06 18:46 56.41131 7.68989 36006 ft 407 kts 331°
2026-05-06 18:46 56.46336 7.64964 36003 ft 407 kts 331°
2026-05-06 18:47 56.51536 7.60930 36013 ft 407 kts 331°
2026-05-06 18:47 56.56735 7.56885 36013 ft 407 kts 331°
2026-05-06 18:48 56.61933 7.52829 36035 ft 406 kts 331°
2026-05-06 18:48 56.67117 7.48772 36006 ft 405 kts 331°
2026-05-06 18:49 56.72041 7.44907 36014 ft 405 kts 331°
2026-05-06 18:49 56.77220 7.40829 36009 ft 405 kts 330°
2026-05-06 18:50 56.82394 7.36742 36009 ft 405 kts 330°
2026-05-06 18:50 56.87568 7.32644 36009 ft 405 kts 330°
2026-05-06 18:51 56.92737 7.28537 36017 ft 405 kts 330°
2026-05-06 18:51 56.97903 7.24421 36011 ft 405 kts 330°
2026-05-06 18:52 57.03213 7.20997 36014 ft 409 kts 336°
2026-05-06 18:52 57.08659 7.17936 36008 ft 410 kts 338°
2026-05-06 18:53 57.14127 7.14951 36009 ft 410 kts 338°
2026-05-06 18:53 57.19589 7.11958 36036 ft 409 kts 338°
2026-05-06 18:54 57.25024 7.08958 36011 ft 406 kts 338°
2026-05-06 18:54 57.30438 7.05947 36013 ft 407 kts 338°
2026-05-06 18:55 57.35858 7.02923 36012 ft 407 kts 337°
2026-05-06 18:55 57.41277 6.99891 36008 ft 407 kts 337°
2026-05-06 18:56 57.46693 6.96852 36029 ft 407 kts 337°
2026-05-06 18:56 57.52105 6.93808 36014 ft 406 kts 337°
2026-05-06 18:57 57.57518 6.90752 36010 ft 407 kts 337°
2026-05-06 18:57 57.62889 6.87711 36008 ft 405 kts 337°
2026-05-06 18:58 57.68289 6.84644 36014 ft 406 kts 337°
2026-05-06 18:58 57.73693 6.81564 36008 ft 406 kts 337°
2026-05-06 18:59 57.79093 6.78478 36015 ft 405 kts 337°
2026-05-06 18:59 57.84481 6.75388 36015 ft 405 kts 337°
2026-05-06 19:00 57.89874 6.72287 36016 ft 405 kts 337°
2026-05-06 19:00 57.95259 6.69181 36018 ft 405 kts 337°
2026-05-06 19:01 58.00628 6.66073 36017 ft 403 kts 337°
2026-05-06 19:01 58.05950 6.62984 36027 ft 402 kts 337°
2026-05-06 19:02 58.11302 6.59866 36022 ft 402 kts 337°
2026-05-06 19:02 58.16657 6.56737 36022 ft 403 kts 337°
2026-05-06 19:03 58.22014 6.53597 36020 ft 403 kts 336°
2026-05-06 19:03 58.27365 6.50452 36022 ft 402 kts 336°
2026-05-06 19:04 58.32717 6.47295 36041 ft 403 kts 336°
2026-05-06 19:04 58.38061 6.44137 36029 ft 402 kts 337°
2026-05-06 19:05 58.43522 6.41502 36035 ft 405 kts 340°
2026-05-06 19:05 58.49007 6.39048 36033 ft 405 kts 340°
2026-05-06 19:06 58.54487 6.36601 36035 ft 405 kts 340°
2026-05-06 19:06 58.59976 6.34142 36037 ft 405 kts 341°
2026-05-06 19:07 58.65459 6.31679 36040 ft 405 kts 340°
2026-05-06 19:07 58.70948 6.29205 36028 ft 405 kts 341°
2026-05-06 19:07 58.73702 6.27959 35789 ft 407 kts 340°
2026-05-06 19:08 58.76444 6.26720 35318 ft 403 kts 340°
2026-05-06 19:08 58.79115 6.25515 34854 ft 396 kts 340°
2026-05-06 19:08 58.81775 6.24311 34390 ft 389 kts 340°
2026-05-06 19:08 58.84423 6.23110 33902 ft 384 kts 339°
2026-05-06 19:09 58.86975 6.21948 33352 ft 379 kts 339°
2026-05-06 19:09 58.89527 6.20785 32854 ft 375 kts 339°
2026-05-06 19:09 58.92056 6.19629 32323 ft 372 kts 338°
2026-05-06 19:09 58.94559 6.18483 31795 ft 368 kts 338°
2026-05-06 19:10 58.97045 6.17343 31285 ft 365 kts 338°
2026-05-06 19:10 58.99505 6.16214 30789 ft 362 kts 337°
2026-05-06 19:10 59.01950 6.15090 30281 ft 360 kts 337°
2026-05-06 19:10 59.04375 6.13973 29728 ft 357 kts 337°
2026-05-06 19:11 59.06780 6.12865 29151 ft 353 kts 337°
2026-05-06 19:11 59.09158 6.11768 28585 ft 350 kts 337°
2026-05-06 19:11 59.11510 6.10681 28027 ft 346 kts 337°
2026-05-06 19:11 59.13838 6.09604 27479 ft 342 kts 337°
2026-05-06 19:12 59.16136 6.08539 26940 ft 338 kts 338°
2026-05-06 19:12 59.18413 6.07482 26461 ft 334 kts 337°
2026-05-06 19:12 59.20664 6.06436 25950 ft 331 kts 337°
2026-05-06 19:12 59.22886 6.05403 25432 ft 327 kts 337°
2026-05-06 19:13 59.25059 6.04390 24936 ft 324 kts 337°
2026-05-06 19:13 59.27272 6.03355 24507 ft 322 kts 337°
2026-05-06 19:13 59.29413 6.02354 24099 ft 319 kts 337°
2026-05-06 19:13 59.31562 6.01348 23709 ft 317 kts 337°
2026-05-06 19:14 59.33782 6.00294 23282 ft 335 kts 338°
2026-05-06 19:14 59.36137 5.99158 22837 ft 363 kts 338°
2026-05-06 19:14 59.38616 5.97978 22389 ft 377 kts 339°
2026-05-06 19:14 59.41183 5.96780 21986 ft 380 kts 339°
2026-05-06 19:15 59.43760 5.95581 21584 ft 381 kts 339°
2026-05-06 19:15 59.46327 5.94382 21176 ft 379 kts 339°
2026-05-06 19:15 59.48883 5.93184 20831 ft 375 kts 339°
2026-05-06 19:15 59.51415 5.91991 20439 ft 373 kts 339°
2026-05-06 19:16 59.53930 5.90800 20046 ft 372 kts 339°
2026-05-06 19:16 59.56435 5.89611 19665 ft 369 kts 339°
2026-05-06 19:16 59.58920 5.88431 19289 ft 365 kts 339°
2026-05-06 19:16 59.61382 5.87260 18851 ft 363 kts 339°
2026-05-06 19:17 59.63814 5.86103 18468 ft 353 kts 339°
2026-05-06 19:17 59.66154 5.85034 18087 ft 341 kts 341°
2026-05-06 19:17 59.68504 5.84386 17678 ft 339 kts 346°
2026-05-06 19:17 59.70850 5.83956 17269 ft 337 kts 347°
2026-05-06 19:18 59.73180 5.83573 16854 ft 335 kts 348°
2026-05-06 19:18 59.75498 5.83195 16454 ft 334 kts 348°
2026-05-06 19:18 59.77800 5.82820 16092 ft 330 kts 348°
2026-05-06 19:18 59.80077 5.82447 15702 ft 327 kts 348°
2026-05-06 19:19 59.82280 5.81996 15315 ft 322 kts 345°
2026-05-06 19:19 59.84487 5.81289 14932 ft 318 kts 343°
2026-05-06 19:19 59.86659 5.80517 14557 ft 316 kts 343°
2026-05-06 19:19 59.88818 5.79735 14196 ft 315 kts 343°
2026-05-06 19:20 59.90965 5.78957 13809 ft 312 kts 343°
2026-05-06 19:20 59.93099 5.78184 13391 ft 310 kts 343°
2026-05-06 19:20 59.95215 5.77419 12979 ft 308 kts 343°
2026-05-06 19:20 59.97321 5.76658 12574 ft 306 kts 344°
2026-05-06 19:21 59.99413 5.75900 12168 ft 304 kts 345°
2026-05-06 19:21 60.01490 5.75147 11760 ft 302 kts 345°
2026-05-06 19:21 60.03550 5.74402 11375 ft 300 kts 345°
2026-05-06 19:21 60.05594 5.73660 10997 ft 298 kts 346°
2026-05-06 19:22 60.07637 5.72916 10614 ft 299 kts 347°
2026-05-06 19:22 60.09677 5.72174 10235 ft 298 kts 347°
2026-05-06 19:22 60.11711 5.71433 10056 ft 296 kts 347°
2026-05-06 19:22 60.13741 5.70755 10038 ft 296 kts 349°
2026-05-06 19:23 60.15781 5.70162 10036 ft 296 kts 349°
2026-05-06 19:23 60.17824 5.69588 9978 ft 297 kts 349°
2026-05-06 19:23 60.19871 5.69017 9565 ft 295 kts 349°
2026-05-06 19:23 60.21860 5.68464 9016 ft 282 kts 349°
2026-05-06 19:24 60.23773 5.67931 8485 ft 274 kts 349°
2026-05-06 19:24 60.25644 5.67407 7958 ft 269 kts 350°
2026-05-06 19:24 60.27492 5.66887 7434 ft 267 kts 350°
2026-05-06 19:24 60.29322 5.66371 7064 ft 264 kts 350°
2026-05-06 19:25 60.31142 5.65858 6977 ft 264 kts 350°
2026-05-06 19:25 60.32352 5.65517 6981 ft 265 kts 350°
2026-05-06 19:25 60.34173 5.65002 6983 ft 264 kts 350°
2026-05-06 19:25 60.35999 5.64485 6986 ft 266 kts 349°
2026-05-06 19:26 60.37781 5.63539 6861 ft 265 kts 336°
2026-05-06 19:26 60.39745 5.60730 6251 ft 261 kts 311°
2026-05-06 19:26 60.40861 5.57864 5700 ft 258 kts 305°
2026-05-06 19:26 60.41884 5.54895 5221 ft 256 kts 303°
2026-05-06 19:27 60.42557 5.52887 5039 ft 255 kts 303°
2026-05-06 19:27 60.43545 5.49926 4985 ft 253 kts 303°
2026-05-06 19:27 60.44505 5.47045 4989 ft 237 kts 303°
2026-05-06 19:27 60.45406 5.44341 4997 ft 227 kts 303°
2026-05-06 19:28 60.46282 5.41707 5001 ft 224 kts 303°
2026-05-06 19:28 60.47150 5.39092 4993 ft 223 kts 302°
2026-05-06 19:28 60.48015 5.36485 4993 ft 222 kts 302°
2026-05-06 19:28 60.48879 5.33873 4990 ft 222 kts 302°
2026-05-06 19:29 60.49739 5.31259 4989 ft 223 kts 301°
2026-05-06 19:29 60.50288 5.28359 4992 ft 222 kts 276°
2026-05-06 19:29 60.50077 5.25280 4791 ft 221 kts 250°
2026-05-06 19:29 60.49425 5.22600 4305 ft 210 kts 241°
2026-05-06 19:30 60.48694 5.20096 3770 ft 203 kts 240°
2026-05-06 19:30 60.47867 5.17805 3279 ft 201 kts 225°
2026-05-06 19:30 60.46632 5.16553 3016 ft 203 kts 195°
2026-05-06 19:30 60.45229 5.16373 2993 ft 204 kts 176°
2026-05-06 19:31 60.43811 5.16848 2957 ft 214 kts 171°
2026-05-06 19:31 60.42307 5.17430 2701 ft 223 kts 171°
2026-05-06 19:31 60.39438 5.18413 2098 ft 188 kts 172°
2026-05-06 19:32 60.38219 5.18828 1839 ft 170 kts 173°
2026-05-06 19:32 60.37075 5.19213 1615 ft 164 kts 173°
2026-05-06 19:32 60.35948 5.19591 1382 ft 162 kts 172°
2026-05-06 19:32 60.34859 5.19958 1135 ft 153 kts 172°
2026-05-06 19:33 60.33885 5.20290 925 ft 133 kts 172°
2026-05-06 19:33 60.33009 5.20585 745 ft 124 kts 172°
2026-05-06 19:33 60.32170 5.20864 549 ft 121 kts 172°
2026-05-06 19:33 60.31345 5.21145 372 ft 120 kts 172°
2026-05-06 19:34 60.30522 5.21410 219 ft 119 kts 171°
2026-05-06 19:34 60.29771 5.21651 170 ft 86 kts 169°
2026-05-06 19:34 60.29322 5.21814 163 ft 51 kts 171°
2026-05-06 19:34 60.29029 5.21919 160 ft 37 kts 169°
2026-05-06 19:35 60.28914 5.22059 159 ft 19 kts 92°
2026-05-06 19:35 60.28923 5.22168 160 ft 0 kts 80°
2026-05-06 19:35 60.28925 5.22192 160 ft 9 kts 80°
2026-05-06 19:36 60.28883 5.22290 160 ft 12 kts 161°
2026-05-06 19:36 60.28794 5.22324 159 ft 14 kts 176°
2026-05-06 19:36 60.28701 5.22369 158 ft 11 kts 136°
2026-05-06 19:36 60.28658 5.22486 158 ft 11 kts 169°
2026-05-06 19:37 60.28614 5.22564 157 ft 8 kts 88°
2026-05-06 19:37 60.28619 5.22624 157 ft 3 kts 80°
2026-05-06 19:37 60.28622 5.22649 157 ft 2 kts 80°
2026-05-06 19:37 60.28622 5.22652 157 ft 0 kts 80°